Miscellaneous Local Product
Issued by NWS North Platte, NE

Home | Current Version | Previous Version | Text Only | Print | Product List | Glossary On
Versions: 1 2 3 4 5 6 7 8 9 10 11 12 13 14 15 16 17 18 19 20 21 22 23 24 25 26 27 28 29 30 31 32 33 34 35 36 37 38 39 40 41 42 43 44 45 46 47 48 49 50
000
AXUS43 KLBF 280310
MISLBF


WESTERN AND NORTH CENTRAL NEBRASKA HOURLY WEATHER ROUNDUP
NATIONAL WEATHER SERVICE NORTH PLATTE NE
1000 PM CDT FRI MAR 27 2015

***STATIONS NOT REPORTING VARIABLES SUCH AS SKY/WEATHER OR
PRESSURE ARE PROVIDED BY THE NEBRASKA DEPARTMENT OF
ROADS...RAWS...AND APRS NETWORKS...AND ARE NOT UNDER
NATIONAL WEATHER SERVICE QUALITY CONTROL***

...OBSERVATIONS IN AND NEAR THE EASTERN PANHANDLE OF NEBRASKA...

CITY           SKY/WX    TMP DP  RH WIND       PRES   REMARKS
PINE RIDGE     MOCLDY    42  32  67 CALM      29.96R
CHADRON        MOCLDY    44  33  65 CALM      29.97R
ALLIANCE       MOCLDY    49  32  52 NW12      29.99R
SIDNEY         MOCLDY    43  32  65 W7        30.03R
WHITECLAY        N/A     41  32  70 SE3         N/A
CRESCENT LAKE    N/A     52  30  42 N6G13       N/A
BIG SPRINGS      N/A     57  31  37 W3          N/A
$$

...OBSERVATIONS IN NORTH CENTRAL NEBRASKA...

CITY           SKY/WX    TMP DP  RH WIND       PRES   REMARKS
VALENTINE      CLEAR     41  31  67 NW5       29.93R
THEDFORD       CLEAR     46  34  62 SW3       29.96R
AINSWORTH      CLEAR     47  34  60 CALM      29.92S
O`NEILL        CLOUDY    35  30  83 S15       29.97R WCI  25
ORD            PTCLDY    38  25  59 SE6       29.97S WCI  33
BROKEN BOW     PTCLDY    42  34  73 CALM      29.95R
BROWNLEE         N/A     55  33  43 CALM        N/A
SPRINGVIEW       N/A     42  33  69 CALM        N/A
BREWSTER         N/A     41  34  77 CALM        N/A
ROSE             N/A     40  35  81 E5          N/A
NEWPORT          N/A     39  30  70 SE3         N/A
SARGENT          N/A     40  33  75 SE3         N/A
COMSTOCK         N/A     41  30  65 S12         N/A
EWING            N/A     33  30  90 S6          N/A  WCI  27
$$

...OBSERVATIONS IN SOUTHWEST NEBRASKA AND FAR NORTHEAST COLORADO...

CITY           SKY/WX    TMP DP  RH WIND       PRES   REMARKS
WRAY           FAIR      53  32  45 NW9       30.01R
HOLYOKE        FAIR      54  34  47 W7        30.01R
IMPERIAL       CLOUDY    52  31  44 NE9       29.98R
OGALLALA       PTCLDY    47  32  57 E5        29.98R
NORTH PLATTE   MOCLDY    44  35  70 E7        29.96S
MCCOOK         MOCLDY    52  36  54 NE5       29.95R
LEXINGTON      MOCLDY    46  35  64 CALM      29.97R
PAXTON           N/A     57  37  47 E7          N/A
SUTHERLAND       N/A     45  33  62 CALM        N/A
BRADY            N/A     46  35  65 CALM        N/A
GOTHENBURG       N/A     53  35  50 S3          N/A
CALLAWAY         N/A     45  35  68 S3          N/A
$$

...NORTH PLATTE AREA...

CITY           SKY/WX    TMP DP  RH WIND       PRES   REMARKS
AIRPORT        MOCLDY    44  35  70 E7        29.96S
DOWNTOWN         N/A     50  37  61 CALM        N/A
$$

...SOME WEATHER OBSERVATIONS FROM AROUND THE REGION...

CITY           SKY/WX    TMP DP  RH WIND       PRES   REMARKS
DENVER         MOCLDY    59  33  37 NW9       30.13R
LARAMIE        MOCLDY    44  23  43 W5        30.19R
CHEYENNE       MOCLDY    54  23  30 NW5       30.13R
SCOTTSBLUFF    MOCLDY    53  33  46 CALM      30.01R
RAPID CITY     PTCLDY    45  33  63 NW10      29.94R
PIERRE         PTCLDY    35  30  82 E8        29.94R WCI  29
WINNER         FAIR      39  30  70 S7        29.93R WCI  34
SIOUX FALLS    CLOUDY    33  22  63 SE13      30.06R WCI  24
OMAHA          CLOUDY    37  20  50 SE10      30.11F WCI  30
GRAND ISLAND   CLEAR     35  24  64 VRB6      30.02F WCI  30
KANSAS CITY    CLOUDY    38  22  52 SE5       30.16R WCI  34
WICHITA        MOCLDY    44  29  55 S8        30.07F
HAYS           MOCLDY    45  30  57 S8        29.98F
LIBERAL        PTCLDY    55  34  44 S9        30.07R
GOODLAND       PTCLDY    51  34  52 SW8       30.02R
$$



USA.gov is the U.S. government's official web portal to all federal, state and local government web resources and services.